Location: Unspecified
(51.0950°N, 12.9690°E)
Time: 17:26:47
(UTC+00:00)

NOSS 3-1 (A) - Pass Details

Date: 28 October 2021
Orbit: 721 x 1491 km, 63.4° (Epoch: 22 November)

Event Time Altitude Azimuth Distance (km) Brightness Sun altitude
Rises 16:41:07 0° 202° (SSW) 3,202 6.7 -8.7°
Reaches altitude 10° 16:43:25 10° 196° (SSW) 2,336 5.9 -9.0°
Maximum altitude 16:48:32 49° 123° (ESE) 1,101 3.5 -9.8°
Drops below altitude 10° 16:54:34 10° 50° (NE) 2,752 5.4 -10.8°
Enters shadow 16:55:13 - 49° (NE) 2,986 5.5 -10.9°
